Wind_Speed
48 47 45 44 43 42 41 42 43 44 44 44 43 42 40 38 37 35 33 32 30 30 28 27 25 24 22 21 21 19 19 19 20 21 21 20 18 17 17 16 16 15 15 15 15 15 17 18 18 18 18 17 16 15 14 14 15 15 15 15 15 14 13 11 12 11 7 5 5 5 6 7 7 9 11 10 10 10 9 8 7 5 4 5 7
50 48 46 45 44 42 41 41 42 43 44 46 46 45 43 41 40 39 38 36 34 33 31 30 28 27 26 24 23 22 21 21 21 21 22 21 20 19 19 18 18 17 17 17 17 16 17 17 16 16 18 19 19 18 18 17 18 18 18 17 17 16 14 13 14 15 11 6 5 5 6 7 9 10 11 12 12 12 10 8 7 6 7 8 9
50 49 47 46 44 42 41 41 41 42 43 45 46 47 46 44 43 43 41 39 38 36 35 33 32 30 29 28 26 25 24 23 23 23 22 22 22 21 21 21 20 19 18 18 18 17 18 18 17 16 17 19 19 19 20 20 19 19 18 18 18 16 15 16 16 17 16 11 6 5 6 8 10 11 12 13 13 14 13 10 8 8 9 10 11
50 50 48 46 44 43 43 42 41 41 42 44 45 46 47 46 45 45 44 43 42 40 38 37 36 34 32 31 29 27 26 25 25 25 24 23 23 22 22 23 22 21 20 20 19 19 19 19 19 18 18 19 19 19 19 19 19 18 18 17 17 17 16 18 18 18 19 16 11 9 9 10 11 13 14 14 14 15 14 12 10 10 11 11 12
51 50 49 48 46 45 43 42 42 41 41 42 43 45 46 46 46 46 45 45 44 42 41 40 39 37 35 33 32 30 28 27 27 26 26 25 24 24 23 23 23 23 22 21 21 20 21 21 20 19 20 20 20 19 18 18 18 18 18 18 17 17 17 18 19 19 20 20 16 14 13 13 13 13 14 16 16 15 14 12 11 11 11 12 13
51 50 50 48 47 46 44 43 42 41 40 40 41 43 44 45 46 46 45 45 44 43 42 42 40 39 37 35 33 32 30 29 28 27 26 26 26 26 25 25 24 24 23 22 22 21 21 21 21 20 21 21 21 20 19 19 19 19 19 18 17 17 17 17 18 19 20 20 19 17 15 14 14 13 14 16 18 18 17 14 12 12 13 13 14
51 51 50 49 48 47 45 44 42 40 38 38 38 40 42 43 44 45 45 44 44 43 43 42 41 39 38 37 35 33 32 30 29 28 28 27 27 27 27 27 26 25 24 23 22 22 22 22 22 21 22 22 21 21 20 19 19 19 19 18 17 17 17 17 17 18 19 20 19 18 15 14 14 14 15 16 17 18 18 18 15 13 14 14 13
51 51 51 50 49 48 45 44 42 40 38 37 37 39 40 41 42 42 43 43 43 43 42 41 40 39 38 37 35 34 33 32 31 29 29 28 27 27 28 28 28 27 25 24 23 22 22 22 22 22 22 22 22 22 21 20 20 19 19 18 18 17 17 17 16 17 18 18 18 17 16 15 15 15 16 16 17 17 17 17 16 14 14 14 12
50 50 51 51 50 48 46 44 43 42 40 39 38 38 39 40 40 40 41 42 42 42 41 41 40 40 39 37 36 35 34 33 32 30 29 28 27 27 27 28 29 29 28 26 25 24 23 22 22 22 22 22 22 22 21 21 21 20 19 18 18 18 18 17 17 17 17 18 17 16 16 16 15 16 16 17 17 17 16 16 15 14 14 13 10
49 49 50 51 50 48 46 45 44 43 42 41 39 39 38 38 39 39 40 40 40 40 40 41 41 40 39 38 37 35 34 33 32 30 30 29 28 27 27 27 28 29 29 28 27 25 24 23 22 21 21 21 22 22 21 21 21 22 21 19 19 20 19 18 17 16 16 17 16 15 16 17 16 16 17 17 16 16 16 15 15 14 13 11 8
47 49 50 49 49 48 47 46 45 44 43 42 41 39 39 38 38 38 38 38 39 39 40 40 40 40 39 39 37 36 35 33 31 31 30 30 29 29 28 27 27 28 29 29 28 26 25 24 24 23 22 22 21 21 21 22 22 22 22 21 21 21 19 17 16 15 15 16 16 16 17 18 17 16 17 17 16 16 16 16 15 14 14 12 10
45 46 47 47 47 47 47 46 45 45 43 42 41 40 39 39 39 38 38 37 37 38 39 39 40 39 39 39 38 37 35 33 31 31 31 31 30 30 29 29 28 28 29 29 28 27 26 26 25 24 24 23 22 22 22 22 22 23 23 23 22 21 19 17 16 16 17 18 18 18 19 19 18 17 17 18 17 16 17 16 15 14 14 14 13
42 43 44 45 46 46 46 46 46 45 43 41 40 40 40 40 40 39 38 37 37 37 38 38 39 39 39 38 38 37 35 33 31 31 31 31 31 31 31 30 30 29 29 29 29 29 28 27 27 26 25 24 23 23 23 23 23 23 23 24 23 23 21 19 19 19 20 21 22 21 20 19 19 17 17 18 18 18 18 17 15 15 15 14 14
36 39 41 43 44 45 45 46 45 44 43 41 40 40 40 40 40 39 38 38 38 38 37 38 38 38 38 38 38 37 36 33 32 31 31 31 30 31 31 31 31 30 30 30 30 30 29 28 28 28 27 26 26 25 24 23 22 22 22 23 23 24 23 22 21 21 21 23 24 24 21 19 19 19 18 20 21 20 19 19 17 17 16 16 15
35 36 37 39 42 44 45 45 44 43 42 40 40 40 40 39 38 38 38 38 39 38 38 38 38 38 38 38 38 38 36 33 32 32 31 31 31 31 31 32 32 31 31 31 31 30 29 29 29 28 28 27 26 25 24 23 23 22 22 22 22 23 24 24 23 22 23 23 24 24 22 21 21 21 20 21 22 21 21 21 20 19 18 17 16
38 38 37 36 38 41 43 44 43 42 41 41 41 40 39 39 37 36 37 37 38 38 38 38 38 38 38 38 38 38 36 34 33 32 32 31 32 32 32 32 32 32 31 31 31 30 30 29 29 29 28 27 26 25 24 24 24 24 23 22 22 23 25 25 24 24 23 23 24 24 23 23 23 23 23 23 22 21 21 22 22 20 19 18 17
38 39 39 37 35 36 40 43 43 42 41 41 41 40 39 37 36 35 35 36 36 37 37 38 38 38 38 38 38 38 36 34 33 33 32 32 33 33 33 32 32 32 31 31 31 31 30 30 30 29 29 28 27 26 25 25 25 25 25 24 24 24 25 24 23 23 23 23 24 24 25 25 26 26 24 23 22 21 22 22 21 19 19 20 18
35 38 38 37 35 34 36 40 43 43 42 42 42 41 39 37 35 34 34 34 33 34 34 35 37 38 38 39 38 38 37 35 34 33 32 32 33 34 33 33 32 31 30 30 30 31 31 31 31 31 31 30 28 27 26 26 26 26 26 26 26 26 25 23 23 24 24 24 25 26 26 26 26 25 23 22 21 21 23 23 20 19 20 20 18
25 29 29 31 33 33 33 36 41 43 43 42 41 41 39 37 35 34 34 33 32 31 32 33 35 37 38 39 39 39 38 36 35 34 33 33 34 34 34 34 33 32 31 30 30 30 31 31 31 32 32 31 29 28 27 27 28 27 27 27 28 28 25 22 23 24 24 24 24 24 24 24 23 23 23 22 22 23 23 22 20 20 21 20 18
13 17 18 21 26 29 30 33 37 41 42 41 41 42 40 39 37 36 35 34 33 32 32 33 34 35 36 38 39 40 39 38 36 35 34 34 34 34 35 35 34 33 32 31 30 30 30 30 30 31 31 30 29 28 28 28 29 28 28 29 30 28 24 23 23 23 22 23 22 22 23 23 23 24 24 24 24 24 23 20 18 19 19 18 17
10 12 14 16 18 20 23 27 31 36 39 40 40 42 42 40 39 38 36 35 34 34 33 33 34 34 35 37 39 40 40 39 38 36 35 35 35 35 36 36 34 33 32 32 32 31 30 29 27 27 28 28 28 28 28 28 28 29 29 30 30 27 26 26 26 25 24 25 24 25 25 25 26 26 26 25 25 24 21 17 16 16 17 17 17
11 12 14 15 16 16 19 22 25 30 34 37 39 41 42 42 41 39 38 37 36 35 34 34 34 35 35 36 38 39 40 40 39 38 37 36 36 36 37 36 34 33 34 34 34 33 31 29 26 24 24 25 25 25 25 25 26 26 27 26 26 26 27 28 28 28 28 28 28 28 28 28 29 29 28 27 26 24 20 16 15 16 16 17 18
13 13 14 15 16 18 20 22 24 26 29 34 38 40 40 41 42 41 40 39 38 37 36 36 36 36 37 37 38 39 39 40 40 40 39 38 37 37 37 36 34 34 36 36 36 34 32 30 28 25 23 23 23 22 22 22 23 24 23 23 24 25 27 30 31 31 31 31 31 31 31 31 32 31 29 27 25 22 19 17 17 17 18 19 20
14 14 14 14 16 18 21 23 25 25 26 30 35 39 40 40 41 42 42 41 40 39 38 38 38 38 38 39 39 40 40 40 41 41 40 39 39 38 38 37 35 35 36 37 37 36 34 33 30 26 24 23 22 22 22 23 24 24 23 23 24 25 28 31 32 33 34 34 34 34 34 33 32 30 28 25 22 20 19 18 18 19 20 20 19
14 14 14 14 15 17 19 21 25 26 26 28 33 37 38 40 41 42 43 43 42 41 40 40 40 40 40 40 40 40 40 40 41 41 41 40 40 39 39 38 37 36 37 37 37 36 36 34 31 28 27 26 25 25 25 25 25 25 24 24 25 26 28 29 30 32 34 34 34 34 33 31 29 27 24 22 21 20 19 19 20 21 22 20 18
18 16 15 15 16 16 17 19 22 24 25 28 31 34 35 37 38 40 41 43 43 43 42 42 42 42 41 41 40 39 40 40 41 42 42 42 41 40 40 39 38 37 38 38 37 36 36 35 33 31 31 30 29 28 28 27 26 26 26 26 27 27 27 27 28 30 32 32 32 31 29 26 24 23 22 21 20 19 19 20 21 21 20 18 16
22 19 17 16 16 16 17 17 18 21 24 27 31 33 34 36 38 40 41 42 43 44 44 43 43 43 43 42 41 40 40 40 41 42 43 43 43 41 40 40 39 39 40 40 39 38 37 36 36 35 34 33 32 32 32 30 29 29 29 28 28 28 27 27 27 28 30 30 30 28 25 22 21 20 19 18 18 18 18 19 19 18 16 15 15
24 22 18 16 16 16 16 16 17 18 21 25 30 32 34 36 38 39 40 41 42 43 44 44 43 43 43 42 41 40 41 41 42 43 43 43 43 42 42 41 40 40 41 40 39 38 38 38 38 37 37 36 36 36 35 33 31 30 30 29 29 28 27 26 25 27 28 28 27 26 23 22 21 19 19 20 20 18 17 18 17 16 16 16 18
25 22 18 17 17 16 15 15 16 17 19 22 26 30 33 35 36 36 36 37 38 39 41 43 41 40 41 41 41 41 42 40 40 40 41 41 42 42 42 41 40 40 39 38 38 38 39 40 40 40 40 39 39 38 36 34 32 32 31 30 29 28 27 26 26 26 26 27 27 26 25 25 24 22 23 24 22 19 17 17 17 17 18 19 20
26 24 20 17 16 16 16 15 15 16 17 20 24 29 33 35 36 36 36 37 37 38 40 41 39 38 39 40 39 39 38 36 35 36 38 40 41 42 41 40 39 38 37 37 39 41 42 42 42 42 41 41 40 38 36 34 33 32 32 31 30 29 28 27 27 26 26 27 28 28 29 30 28 25 24 24 21 18 17 17 18 19 21 22 22
26 25 22 19 16 14 14 14 15 15 15 19 23 28 32 35 38 38 38 39 39 40 42 42 40 39 40 40 39 38 36 34 35 36 38 39 41 41 40 40 39 38 37 37 39 42 43 43 42 42 41 40 39 37 35 34 33 33 32 31 29 29 28 28 28 28 28 28 29 30 31 30 27 24 24 23 19 17 17 18 20 22 22 22 20
24 24 23 21 18 14 12 12 14 14 15 18 23 28 31 35 38 39 40 41 42 42 42 42 42 41 41 40 40 39 37 36 36 37 37 38 39 39 39 39 39 38 37 38 39 41 41 41 41 40 40 40 38 36 35 34 34 33 33 31 30 29 27 26 25 26 27 28 29 30 31 30 26 24 23 20 16 16 18 20 22 22 21 20 18
22 22 21 21 19 15 13 12 13 14 15 18 22 27 32 35 38 39 40 42 42 43 43 43 42 41 41 41 41 40 39 37 36 36 36 37 37 38 38 38 38 38 38 38 40 40 40 40 40 39 39 39 38 36 36 35 35 35 35 34 32 29 27 26 25 25 26 27 27 27 28 27 25 23 19 16 15 16 18 19 20 21 21 20 19
20 19 19 19 20 17 15 15 15 15 17 20 23 27 32 36 39 40 41 42 43 44 44 43 43 41 41 41 41 41 40 39 37 36 35 35 35 35 36 37 38 38 38 39 39 38 39 39 39 39 39 39 38 38 38 37 37 38 37 35 33 31 29 28 26 25 23 23 23 22 21 22 23 20 16 14 15 16 17 18 21 22 22 22 21
19 18 16 17 18 18 17 16 16 17 18 21 25 28 32 35 38 41 43 44 45 46 45 43 42 40 40 39 40 41 41 39 38 36 35 34 34 35 36 38 39 39 39 39 39 39 38 38 38 38 38 39 39 39 39 40 40 40 39 36 33 31 29 27 24 21 19 20 20 19 19 21 22 19 14 14 15 16 16 18 21 23 23 23 21
18 18 16 15 17 18 18 18 18 18 18 20 23 27 32 36 39 41 43 45 47 47 46 44 43 41 40 39 40 41 40 39 38 37 35 34 35 36 38 39 40 40 40 40 41 41 40 39 39 37 37 39 39 39 40 42 41 39 38 35 31 29 27 24 21 18 18 19 19 19 19 20 19 17 16 17 17 17 16 18 21 23 23 21 19
16 17 17 16 16 18 19 19 19 20 19 20 22 26 30 35 40 42 43 45 47 48 47 46 45 44 42 40 40 40 40 39 39 39 38 37 37 38 40 40 40 40 40 39 39 39 39 39 39 39 39 40 39 38 40 42 41 39 36 33 29 27 25 22 19 18 17 18 19 19 19 19 19 19 21 21 19 17 17 19 21 23 21 19 18
13 15 16 16 17 18 20 21 21 21 22 23 24 25 28 32 37 40 43 45 47 47 48 47 47 46 44 41 39 40 40 40 40 41 41 40 40 40 40 41 41 41 39 37 36 36 37 37 38 40 42 40 36 36 38 40 39 38 35 30 27 25 23 21 20 20 20 20 21 20 20 22 23 23 22 20 19 18 18 18 20 20 20 19 20
11 11 12 14 16 18 20 21 22 21 22 24 26 27 29 32 35 39 42 45 46 47 47 48 48 48 45 42 40 40 41 42 43 43 42 42 42 41 40 41 43 42 40 38 36 36 36 36 37 40 41 37 35 36 38 37 38 37 34 28 25 23 21 20 21 21 21 21 21 22 24 26 25 23 20 20 19 18 17 18 18 19 20 21 21
11 10 10 11 13 16 19 21 22 22 22 23 26 28 30 33 35 38 41 43 46 47 47 47 48 48 46 43 42 41 42 43 44 44 43 42 43 43 42 42 43 43 42 40 38 36 35 33 34 38 39 36 35 37 36 34 35 35 31 26 24 22 20 20 21 21 21 20 20 23 26 27 25 23 22 21 19 17 16 18 20 20 20 21 21
11 11 11 10 11 13 16 18 21 24 25 24 25 27 29 32 34 36 38 41 44 46 48 48 49 49 48 47 44 43 43 44 44 43 42 42 43 44 44 44 44 45 44 42 39 35 34 33 33 36 36 33 33 35 34 32 33 31 27 24 25 23 20 19 21 22 22 20 20 24 27 26 25 23 22 19 17 16 17 19 20 21 21 21 21
11 11 12 11 11 12 13 14 17 21 26 27 27 27 28 31 33 34 37 40 42 44 46 48 49 50 49 49 47 46 46 45 43 42 42 43 43 44 45 45 46 47 47 44 41 37 34 34 34 34 32 30 31 34 33 30 29 26 22 20 21 22 21 19 20 21 21 20 19 22 24 23 21 20 18 16 16 18 20 21 21 20 20 21 21
12 11 12 13 14 14 15 15 15 16 20 25 28 29 29 30 32 34 36 38 41 43 44 45 47 49 50 50 48 46 45 43 42 42 43 43 43 44 46 47 47 47 46 43 41 37 33 32 33 31 30 30 33 34 32 29 25 21 18 17 19 21 20 18 17 18 18 18 18 19 19 18 17 16 16 17 18 20 21 21 21 20 20 20 21
12 12 12 13 15 16 17 18 18 17 17 19 23 27 28 29 30 32 34 37 38 40 42 45 46 48 48 47 44 42 41 40 41 42 43 42 42 44 46 46 45 44 42 40 37 34 31 30 28 26 26 30 31 30 27 23 19 16 15 16 18 18 15 13 13 14 15 17 18 18 17 17 17 17 18 19 20 21 20 20 20 20 20 20 20
12 12 12 13 15 16 16 17 17 17 17 16 17 20 23 25 26 28 32 35 35 35 39 44 46 45 44 42 41 40 39 39 39 40 41 42 43 44 45 44 41 39 37 36 34 31 29 27 25 25 28 30 28 22 18 16 13 12 12 12 11 11 10 10 12 14 15 16 17 17 17 17 18 18 19 19 19 19 19 19 20 20 20 20 20
12 13 13 13 15 16 16 14 14 14 15 15 14 14 15 19 22 24 27 30 29 28 31 37 40 41 39 38 38 38 38 39 41 41 41 41 41 41 39 38 36 35 33 31 29 27 25 22 20 21 23 24 21 17 15 13 12 12 11 10 9 9 10 11 12 13 13 13 14 15 16 17 17 17 17 16 17 18 19 20 20 19 19 19 19
11 12 13 13 14 15 14 13 11 10 11 12 11 11 10 12 15 17 19 20 21 21 24 28 32 35 35 35 36 38 40 41 42 42 41 40 39 37 33 31 31 32 30 27 25 24 23 19 14 12 11 12 12 12 12 12 11 11 11 10 10 10 10 11 11 11 11 11 12 12 14 15 16 16 16 16 17 18 19 18 18 17 17 17 17
10 10 11 11 12 12 12 11 9 8 8 8 8 7 7 6 7 7 8 10 13 17 22 25 27 31 34 35 36 38 40 40 40 39 38 37 36 32 27 25 25 26 25 23 22 21 19 16 12 10 9 9 9 10 10 11 11 11 11 11 11 11 11 12 11 11 11 11 12 12 13 14 15 15 16 16 17 17 16 15 15 15 15 15 16
9 9 10 9 9 10 10 10 8 7 7 6 6 6 6 5 4 2 3 8 12 16 20 23 25 27 29 31 33 34 34 35 35 34 33 31 29 26 23 22 23 24 24 23 22 20 18 16 14 13 12 11 11 11 10 10 10 10 10 11 11 11 11 11 11 12 12 13 13 13 14 14 14 14 14 14 14 14 14 14 14 15 15 16 16
7 7 7 7 7 7 9 9 8 7 7 6 7 9 9 8 8 8 9 11 14 16 17 19 20 21 22 23 25 26 28 29 30 29 27 26 25 23 22 22 23 24 24 24 23 21 19 18 16 14 12 11 11 11 10 10 9 9 9 8 8 8 8 9 9 9 10 10 11 11 12 12 12 12 12 12 13 13 14 14 15 15 15 15 16
6 5 5 6 6 6 7 8 8 8 7 8 9 11 12 13 13 14 14 16 18 19 19 19 19 22 25 26 25 24 25 29 31 30 28 26 25 23 22 22 23 23 23 23 22 21 20 18 17 15 13 12 11 11 10 10 10 9 8 8 8 8 9 9 9 9 9 9 10 10 10 11 11 12 12 13 13 13 13 13 13 13 14 14 14
Wind_Direction
223 225 226 228 229 230 231 231 230 230 229 229 230 231 233 236 238 240 241 242 243 244 246 249 251 253 254 254 253 250 247 244 241 236 236 239 241 241 243 243 243 242 241 238 236 234 234 236 239 237 235 238 244 250 256 260 265 268 271 279 288 291 288 291 297 298 296 280 272 278 286 301 323 331 333 341 346 346 338 325 325 324 321 345 6
224 225 226 228 230 232 233 233 233 233 232 231 231 231 232 234 238 240 242 244 245 247 248 251 253 255 256 257 257 255 252 249 247 242 239 239 240 242 243 245 246 245 244 243 241 239 239 241 242 241 240 241 243 248 254 260 265 267 271 278 284 284 283 288 295 300 301 288 270 277 286 303 326 338 339 343 348 350 345 327 315 317 327 343 355
225 225 226 228 231 233 234 235 235 235 235 234 233 232 232 233 236 238 242 244 246 248 250 251 254 255 256 257 258 257 256 253 250 248 244 241 240 242 243 245 248 248 247 246 246 246 245 245 245 243 244 245 246 249 253 259 263 265 268 273 278 280 283 288 291 296 301 299 291 292 297 311 329 337 339 342 346 347 344 330 314 321 334 341 348
225 225 226 229 230 232 234 235 236 237 237 237 236 235 234 234 235 236 239 242 245 247 250 251 253 255 255 256 257 258 258 255 252 250 248 245 242 242 243 245 248 250 250 250 249 249 249 249 248 246 246 248 250 252 253 256 259 262 264 267 273 279 284 287 289 291 295 298 302 307 308 315 327 335 337 339 342 342 340 332 318 322 336 342 346
225 225 227 229 230 232 233 235 236 238 239 240 239 238 237 237 236 237 238 240 242 245 247 250 252 253 254 255 256 258 258 258 256 252 250 248 245 243 244 245 247 249 251 252 252 252 251 251 251 251 251 252 253 255 256 259 261 263 265 267 272 278 281 284 286 287 289 293 300 305 309 313 321 332 336 336 337 337 336 334 324 322 336 348 350
224 225 227 229 230 232 233 234 236 238 241 242 242 241 240 239 239 239 239 241 242 244 246 249 251 252 254 255 256 258 259 259 258 255 252 250 248 246 245 245 246 248 250 251 252 254 255 254 253 253 255 256 257 258 260 263 264 264 265 267 270 274 277 280 283 284 286 289 295 300 305 309 315 328 335 334 334 333 332 333 331 329 337 352 354
223 225 227 229 231 233 234 235 236 239 241 243 244 243 243 242 241 241 242 243 244 245 247 249 250 252 253 255 256 258 258 259 258 255 252 251 250 249 248 247 247 247 249 250 250 252 254 256 255 254 255 257 259 260 260 262 263 263 264 267 270 272 275 277 278 280 283 286 291 295 299 303 311 323 331 332 331 331 329 328 332 334 335 346 353
223 225 227 229 231 233 235 237 238 239 241 243 244 244 243 243 243 243 243 244 245 247 248 249 251 252 254 255 256 257 257 257 256 254 252 250 250 250 249 249 248 248 248 249 250 252 253 254 255 254 255 256 258 260 261 263 265 265 264 266 269 270 272 274 276 277 280 283 287 290 293 297 306 319 327 329 330 327 324 323 328 333 333 339 346
224 225 227 229 232 234 236 237 239 240 241 242 244 244 244 244 244 244 244 245 246 248 249 250 252 253 254 255 256 256 256 255 254 253 251 249 249 249 249 249 249 249 249 249 250 252 253 254 253 253 254 256 258 259 261 264 266 266 265 265 267 268 271 274 276 277 279 282 284 287 289 292 304 317 324 329 328 322 318 319 324 328 329 334 339
224 225 227 229 232 235 236 237 239 240 240 242 243 244 245 245 244 245 245 246 247 248 249 251 252 253 254 255 256 256 255 254 253 251 249 248 248 249 250 249 249 249 249 249 248 249 251 254 254 254 254 254 255 257 259 262 264 265 265 264 265 268 270 272 273 275 279 281 282 286 286 289 302 317 322 326 323 314 311 314 319 322 322 325 332
226 227 228 231 232 234 236 237 239 240 241 242 244 244 245 245 245 246 247 247 247 248 249 250 251 252 254 255 256 256 255 254 253 251 249 248 248 249 249 249 250 250 250 249 247 246 248 252 254 255 256 255 255 256 259 261 262 262 263 263 264 266 265 265 267 270 275 279 281 285 286 290 301 314 320 322 316 305 303 308 312 315 315 315 323
228 230 230 232 233 234 235 237 238 240 241 242 244 245 245 246 246 246 247 247 248 248 248 249 250 251 252 254 255 256 256 255 254 252 250 249 249 249 250 250 251 251 250 249 247 246 247 250 253 254 255 256 257 258 260 261 261 261 262 263 263 260 255 257 263 267 272 277 279 280 282 290 299 310 318 317 307 298 297 301 305 307 306 307 315
231 232 232 233 234 235 236 237 238 240 242 243 245 246 246 246 246 246 247 248 248 249 248 249 249 250 250 252 253 254 255 255 253 252 250 249 249 250 251 251 251 251 251 249 248 248 247 249 250 251 253 255 257 260 261 261 261 261 262 263 261 256 251 252 257 263 270 274 277 277 280 289 296 304 312 310 302 295 295 297 299 299 298 300 307
231 233 235 235 236 237 237 238 239 241 242 244 245 246 246 247 247 248 248 248 247 248 248 248 248 249 249 250 252 253 254 253 252 251 250 249 249 250 251 252 252 252 252 251 249 248 247 247 248 249 251 253 254 258 260 262 263 264 265 265 263 258 254 252 253 259 265 271 276 279 283 289 293 297 302 301 297 295 294 294 293 291 291 294 299
227 230 233 235 238 238 239 239 240 241 243 244 245 245 246 247 248 249 249 248 247 247 247 247 247 248 249 250 251 252 252 252 251 251 250 248 248 249 250 252 253 253 254 253 251 249 247 247 247 248 249 251 252 255 258 261 265 267 268 267 265 261 258 255 255 258 262 268 273 277 281 285 287 290 292 292 292 293 293 291 288 286 287 290 294
229 231 233 235 236 238 239 240 241 242 244 244 244 245 246 247 248 250 249 249 248 248 247 247 247 248 248 249 250 251 251 251 251 250 249 248 248 249 250 251 253 254 254 254 253 250 248 247 248 248 249 250 251 253 256 261 265 268 269 268 266 263 259 256 256 256 259 263 266 271 276 279 282 286 286 286 288 291 290 287 282 282 283 284 289
232 234 235 238 240 240 240 240 241 243 244 244 245 245 246 247 249 250 249 248 248 247 246 246 246 247 248 248 249 250 250 250 250 250 249 248 249 249 249 250 251 253 253 253 253 252 250 248 249 250 250 250 251 252 256 262 265 267 268 268 267 264 259 255 254 254 254 257 262 266 271 276 280 283 283 284 286 288 288 285 282 280 278 279 285
232 235 236 237 241 243 243 242 241 243 245 246 246 246 247 248 249 250 249 249 249 249 248 248 247 246 246 247 248 249 249 249 249 250 249 249 249 249 249 249 250 251 251 252 252 252 250 249 249 250 250 249 249 251 255 260 263 265 266 268 269 266 260 255 254 255 256 258 263 267 272 276 278 278 279 281 283 285 287 287 282 275 273 276 282
231 236 238 237 238 242 245 245 243 243 246 248 249 248 249 250 250 250 250 250 250 250 250 248 248 247 247 247 248 249 249 249 249 249 249 248 249 249 249 249 249 249 250 250 250 251 251 251 250 250 249 249 249 250 253 257 260 261 264 267 268 265 262 260 261 262 263 265 267 269 272 273 274 274 277 280 283 286 289 286 277 270 270 275 278
230 232 235 236 236 237 241 245 246 246 248 251 251 250 250 250 250 250 250 250 250 250 249 248 248 249 248 248 248 248 249 249 249 248 247 247 248 249 249 249 247 247 248 248 249 250 251 251 250 250 249 249 249 250 252 255 257 259 261 264 264 263 265 267 268 268 268 269 269 269 270 272 274 277 279 282 284 287 287 281 271 267 269 271 271
234 230 228 229 232 233 234 239 245 248 251 253 253 251 250 250 250 250 250 250 249 249 248 248 249 249 250 249 249 249 250 250 250 248 247 246 246 248 249 249 247 246 247 248 249 250 251 251 251 250 250 250 250 252 254 256 259 260 261 263 264 265 269 270 270 271 271 270 270 271 273 276 278 281 283 283 285 286 284 276 267 266 267 265 265
247 243 236 233 236 237 235 236 239 245 249 251 250 250 250 249 249 250 250 249 249 249 249 249 249 250 250 250 250 250 250 251 251 250 249 248 247 247 248 249 249 247 247 248 249 250 251 252 251 250 251 251 253 255 258 260 262 263 263 264 267 270 272 273 273 273 272 272 273 274 276 278 280 282 283 283 283 284 283 276 269 267 265 263 267
259 257 248 242 240 241 241 240 238 240 245 247 247 248 248 248 248 248 248 248 248 248 249 249 249 249 249 249 249 250 251 251 251 252 251 250 249 248 248 249 250 249 249 250 251 252 253 253 253 253 253 254 254 257 259 261 263 265 266 267 271 273 274 274 273 273 272 272 273 273 275 277 280 281 280 280 282 284 282 278 273 268 265 268 275
268 264 260 255 247 243 242 241 239 239 240 243 244 245 245 246 247 247 246 246 246 247 248 248 247 247 248 249 249 249 250 251 252 252 253 252 252 251 250 250 250 250 251 252 253 254 255 256 257 258 259 258 258 260 263 264 266 268 269 271 273 274 273 272 272 271 270 270 270 272 274 276 276 277 278 280 281 280 278 276 273 268 268 274 278
284 272 265 264 259 252 246 241 239 238 237 237 239 241 242 243 244 245 245 244 245 246 248 247 246 246 247 248 249 250 250 251 252 253 253 253 253 252 252 251 251 251 252 253 254 255 257 258 260 261 261 261 260 262 264 265 267 269 270 271 271 270 269 269 269 268 267 267 268 269 271 272 272 274 276 277 276 275 274 274 273 272 273 274 271
301 290 276 269 266 262 255 247 242 239 236 234 235 237 239 241 242 243 243 244 245 246 247 247 246 246 247 248 249 250 251 251 252 253 253 253 253 253 252 252 252 251 252 253 255 256 258 259 260 261 261 261 261 262 264 266 268 268 268 268 267 266 267 268 268 266 266 266 266 266 268 269 269 270 271 271 271 272 273 274 273 273 271 268 262
307 300 287 275 271 267 262 257 251 242 235 233 234 236 238 240 241 242 243 243 244 244 245 245 245 245 246 246 247 248 250 252 253 253 252 252 252 252 252 251 251 250 251 251 253 254 256 257 257 258 258 259 260 262 263 265 265 264 263 264 265 266 267 268 268 265 262 262 263 264 264 264 262 262 262 262 264 267 271 272 272 268 262 256 254
310 305 293 279 275 272 267 264 260 248 238 234 235 235 236 236 238 241 244 245 245 245 245 245 246 247 247 247 247 247 248 251 252 251 251 252 253 252 251 250 250 249 249 249 250 252 254 254 254 255 256 257 259 261 262 262 260 259 260 261 264 266 267 267 264 260 256 256 258 258 256 255 255 256 255 255 256 260 265 266 262 257 251 248 246
309 308 302 287 279 277 274 271 266 256 246 241 241 240 240 239 240 243 248 250 250 250 250 249 250 252 251 249 248 247 248 252 255 253 253 254 255 254 253 253 252 252 252 252 252 252 253 253 253 253 254 256 258 259 258 257 256 256 257 259 262 264 264 263 262 260 256 254 255 255 255 254 253 253 256 259 260 260 260 258 252 246 243 241 240
306 307 308 300 287 281 278 276 271 261 250 246 247 246 244 243 244 247 251 253 253 254 253 252 255 257 255 253 253 253 256 261 262 259 256 255 255 255 256 257 256 256 257 256 254 252 252 253 253 254 254 255 256 255 253 252 252 253 256 259 261 262 262 262 264 265 261 256 255 256 256 256 256 256 258 261 261 259 256 251 244 239 236 234 237
304 305 308 308 300 286 279 280 279 272 258 251 250 249 246 244 244 246 248 250 251 252 252 252 254 256 256 257 258 259 261 263 262 259 257 255 254 255 256 257 257 257 257 256 254 253 253 253 253 253 252 252 251 250 249 249 251 254 257 259 260 261 261 262 264 266 263 258 256 257 259 262 263 261 257 255 254 255 253 245 238 235 234 233 239
302 304 307 309 305 292 280 277 279 277 267 256 250 249 247 246 246 246 247 248 248 250 251 251 251 253 256 257 257 259 260 259 258 257 257 255 254 254 255 256 257 256 255 254 253 253 253 254 253 251 249 248 248 248 249 250 252 254 256 256 256 256 255 256 260 265 265 261 257 256 258 261 264 264 260 253 248 249 250 245 236 232 231 233 237
300 303 304 306 305 297 279 266 267 269 264 256 252 250 249 248 248 249 248 247 247 248 248 249 249 251 254 256 256 257 259 259 258 258 257 256 255 254 254 255 256 255 253 252 252 252 252 252 251 250 250 249 249 250 252 253 254 255 254 254 253 251 250 252 256 260 263 263 259 256 256 258 262 264 260 252 246 245 246 240 231 227 228 228 228
297 297 298 299 301 298 282 265 260 262 258 250 246 247 248 249 250 250 250 248 247 246 246 246 247 249 251 254 255 255 256 256 257 257 257 257 256 255 254 253 252 251 251 251 251 251 251 250 249 249 249 250 251 252 253 254 255 255 254 254 251 248 249 253 254 255 258 258 254 251 249 250 254 255 247 239 240 241 238 233 229 227 228 230 231
298 292 288 287 288 290 283 270 259 258 258 252 245 243 246 248 249 249 249 250 250 249 249 249 248 249 251 253 254 254 253 254 255 256 256 255 255 253 252 250 249 249 249 249 250 251 251 251 250 249 249 249 250 252 253 254 254 255 256 255 251 248 248 249 247 248 253 250 243 240 242 247 250 248 240 235 237 236 235 234 231 228 230 232 234
312 301 289 281 277 277 276 271 261 255 255 255 252 249 248 246 246 246 247 248 249 250 251 251 251 250 251 253 254 254 252 252 253 254 253 253 251 250 248 248 248 248 248 249 250 251 251 252 252 251 250 249 250 252 254 255 255 256 256 253 249 246 244 242 242 246 251 247 240 238 240 242 240 235 231 232 233 233 236 236 232 232 233 232 228
334 320 304 289 278 271 268 265 260 252 247 248 251 254 251 247 244 244 245 246 247 248 249 250 250 250 250 252 255 255 253 252 252 252 250 248 247 247 246 246 245 245 246 247 249 251 252 253 253 252 250 247 246 248 250 251 253 254 252 248 244 239 234 232 237 244 247 245 242 238 236 235 234 234 234 231 228 228 231 233 234 235 233 225 218
351 341 323 304 290 280 272 266 260 252 244 240 242 247 250 249 247 246 246 246 246 246 246 247 249 250 250 252 255 256 254 252 251 250 248 245 243 243 244 244 244 245 245 247 248 250 251 252 252 250 247 245 244 244 243 245 247 249 248 245 239 230 223 223 231 237 241 242 240 238 237 237 237 239 238 232 226 227 231 235 235 228 219 213 213
358 358 342 320 304 294 284 276 270 262 251 243 238 239 241 243 245 246 247 247 247 246 245 245 247 249 251 252 253 255 254 252 251 250 248 245 242 241 241 242 243 244 245 245 246 246 246 248 250 249 247 246 245 244 242 241 241 243 244 240 230 220 219 224 231 236 242 245 244 245 246 243 239 237 235 232 233 236 236 232 225 214 208 211 217
353 359 352 336 320 308 296 285 277 270 262 251 244 241 241 241 242 244 246 247 248 248 247 246 248 252 253 252 251 252 253 253 253 252 250 247 244 241 240 240 242 244 245 245 245 246 247 250 252 253 252 249 244 242 243 242 241 241 240 232 219 212 216 228 235 239 246 251 254 255 251 243 237 234 231 231 235 236 227 217 211 207 209 215 220
349 356 353 343 330 319 309 297 285 277 271 262 252 247 247 248 249 250 250 250 250 251 251 251 252 255 256 255 254 254 253 253 254 253 251 248 246 244 242 241 242 243 245 246 246 247 247 249 252 254 253 249 243 240 242 242 242 242 237 226 217 214 219 232 242 246 249 251 251 249 244 236 231 229 228 227 227 222 215 211 210 211 215 219 223
340 356 357 349 336 325 317 308 296 284 276 270 263 256 252 252 254 256 258 257 256 255 255 255 255 255 256 256 255 251 248 248 249 250 249 248 246 244 243 241 240 241 241 241 242 242 243 246 248 250 250 249 246 244 241 237 237 240 239 231 225 223 225 232 242 249 253 251 241 232 229 227 225 223 220 219 216 212 210 211 212 215 219 224 226
330 345 351 348 343 337 329 322 314 299 283 273 267 262 258 257 257 257 258 260 261 261 261 261 260 259 258 256 253 248 245 245 245 244 244 243 243 242 240 238 237 237 236 235 236 237 239 242 243 243 246 248 246 239 232 226 227 234 242 240 232 226 225 231 238 244 247 241 227 216 216 218 216 211 206 205 206 207 208 210 213 217 221 223 222
328 335 337 336 337 338 335 330 325 318 305 287 273 264 261 262 264 263 260 257 258 261 262 262 262 260 257 253 249 244 242 242 241 238 237 238 239 238 236 234 234 234 232 231 231 231 231 234 234 233 237 241 236 225 218 216 220 227 234 234 227 220 216 221 226 226 226 225 219 215 212 209 204 201 200 201 204 209 212 214 216 218 219 218 218
331 333 332 330 329 329 329 330 328 324 319 310 293 278 271 271 275 274 266 258 254 255 257 257 256 253 249 245 241 238 235 233 232 230 231 232 234 233 232 231 231 231 228 226 223 222 221 221 217 212 216 222 221 212 207 207 206 205 208 211 209 204 198 200 206 208 210 213 215 212 208 203 199 199 201 204 207 212 214 214 215 215 216 218 222
332 334 334 333 331 327 326 329 330 326 322 319 311 300 290 286 283 278 267 257 251 246 244 244 244 242 237 233 231 229 227 226 225 222 220 221 223 225 226 226 225 223 219 213 210 210 211 209 201 198 204 207 201 193 192 191 186 184 186 184 183 187 190 193 196 196 196 199 202 202 201 201 202 205 207 208 208 209 211 212 214 217 221 225 229
335 336 338 339 338 335 333 334 333 329 328 328 323 318 313 302 289 276 263 252 242 233 226 224 223 223 222 221 219 217 215 215 215 214 213 214 215 214 211 208 206 206 203 197 193 194 197 196 190 188 194 195 187 179 177 176 174 176 177 173 173 177 178 177 177 177 178 183 190 195 200 204 207 209 209 207 205 207 210 214 217 222 227 233 238
343 343 347 349 347 343 342 343 341 339 342 347 347 345 344 334 312 283 251 228 214 207 205 202 199 203 209 212 209 205 204 203 203 203 205 207 206 200 192 183 178 179 180 176 172 173 177 178 173 167 169 178 186 184 176 170 170 171 167 163 163 164 164 166 169 173 178 185 191 195 200 204 206 205 204 203 205 209 215 221 228 235 242 249 255
354 351 353 355 353 351 351 355 360 2 4 11 23 33 33 27 25 50 169 178 176 179 183 182 179 183 193 197 193 188 189 193 194 192 189 186 182 177 171 164 159 158 158 156 155 154 155 157 158 156 154 158 166 168 164 160 161 162 161 161 160 161 166 172 177 181 186 189 192 195 198 201 202 203 205 209 215 222 230 238 245 251 256 260 263
8 2 358 358 3 8 7 7 16 27 32 41 60 70 74 78 85 101 129 146 149 152 161 168 167 166 168 170 169 168 167 168 170 169 164 157 154 154 156 155 153 150 149 147 145 143 142 141 138 134 134 140 147 150 150 151 152 155 158 158 158 164 174 180 183 186 190 193 195 198 202 206 209 213 219 224 230 235 241 246 250 255 259 263 266
31 32 22 12 16 26 25 23 32 46 55 64 76 84 91 97 102 111 123 130 130 132 138 144 145 143 141 141 144 147 146 142 141 140 139 137 136 139 142 143 143 141 140 138 136 133 129 125 122 122 127 135 142 144 145 147 150 153 156 158 162 169 175 178 183 188 195 201 206 209 212 216 221 224 228 232 236 240 244 248 253 258 262 266 268
Height
1528 1531 1534 1536 1539 1542 1544 1547 1549 1552 1554 1556 1558 1560 1562 1564 1566 1568 1570 1572 1574 1576 1577 1579 1580 1582 1583 1585 1586 1587 1588 1589 1590 1591 1591 1592 1593 1594 1595 1596 1597 1597 1598 1599 1599 1600 1601 1601 1602 1603 1603 1604 1604 1604 1604 1605 1605 1605 1605 1605 1605 1605 1605 1605 1604 1603 1604 1603 1603 1603 1602 1602 1601 1600 1599 1598 1597 1595 1593 1592 1591 1591 1590 1589 1588
1525 1528 1531 1534 1536 1539 1542 1544 1547 1549 1552 1553 1555 1557 1559 1561 1564 1566 1567 1569 1572 1573 1575 1577 1578 1580 1581 1583 1584 1585 1586 1588 1589 1589 1590 1591 1592 1593 1594 1594 1595 1596 1597 1598 1599 1599 1600 1600 1601 1602 1602 1603 1603 1604 1604 1604 1604 1605 1605 1605 1605 1605 1605 1604 1603 1603 1602 1603 1602 1602 1602 1601 1601 1600 1598 1597 1595 1594 1593 1592 1591 1591 1590 1589 1588
1522 1525 1528 1531 1533 1536 1539 1541 1544 1547 1549 1550 1552 1554 1556 1559 1561 1563 1565 1567 1569 1571 1572 1574 1576 1577 1579 1580 1582 1583 1585 1586 1587 1588 1589 1589 1590 1591 1592 1593 1594 1595 1596 1597 1598 1598 1599 1599 1600 1601 1601 1602 1602 1603 1603 1604 1604 1604 1604 1604 1604 1604 1604 1603 1603 1602 1601 1601 1601 1601 1601 1601 1600 1599 1597 1596 1594 1593 1592 1591 1591 1590 1589 1588 1588
1520 1523 1525 1528 1531 1533 1536 1538 1541 1543 1545 1547 1549 1552 1554 1556 1558 1560 1562 1564 1566 1568 1570 1572 1573 1575 1577 1578 1580 1581 1582 1584 1585 1586 1587 1588 1589 1590 1591 1592 1593 1594 1594 1595 1596 1597 1598 1598 1599 1600 1600 1600 1601 1602 1602 1603 1603 1603 1603 1603 1603 1603 1603 1602 1602 1601 1600 1600 1600 1600 1600 1599 1599 1598 1596 1595 1594 1593 1591 1590 1590 1589 1589 1588 1587
1517 1520 1522 1525 1528 1530 1533 1535 1537 1539 1542 1544 1547 1549 1551 1553 1555 1557 1559 1561 1563 1565 1567 1569 1571 1572 1574 1576 1577 1579 1580 1581 1583 1584 1585 1586 1587 1588 1589 1590 1591 1592 1593 1594 1595 1596 1596 1597 1598 1598 1599 1599 1599 1600 1601 1601 1602 1602 1602 1602 1602 1602 1602 1601 1601 1600 1599 1599 1599 1599 1599 1598 1597 1597 1595 1594 1592 1592 1591 1590 1589 1588 1588 1587 1586
1515 1517 1520 1522 1524 1527 1529 1532 1534 1536 1539 1541 1543 1546 1548 1550 1552 1554 1556 1558 1560 1562 1564 1566 1567 1569 1571 1573 1574 1576 1577 1579 1580 1581 1583 1584 1585 1586 1587 1588 1589 1590 1591 1592 1593 1594 1595 1595 1596 1597 1597 1597 1598 1599 1599 1600 1600 1600 1600 1601 1601 1600 1600 1600 1599 1599 1598 1598 1598 1598 1598 1597 1596 1595 1594 1593 1591 1590 1589 1589 1588 1587 1586 1585 1584
1512 1515 1517 1519 1521 1523 1525 1528 1530 1533 1536 1538 1541 1543 1545 1547 1549 1551 1553 1555 1557 1559 1561 1562 1564 1566 1568 1570 1571 1573 1575 1576 1577 1579 1580 1582 1583 1584 1585 1587 1588 1588 1589 1590 1591 1592 1593 1593 1594 1595 1595 1596 1596 1597 1597 1598 1598 1598 1599 1599 1599 1599 1599 1598 1598 1598 1597 1597 1597 1597 1597 1596 1595 1594 1593 1592 1591 1589 1588 1586 1586 1586 1584 1583 1582
1509 1512 1514 1516 1518 1520 1522 1525 1528 1530 1533 1535 1537 1539 1541 1544 1545 1547 1550 1551 1553 1555 1557 1559 1561 1563 1565 1566 1568 1570 1571 1573 1574 1576 1578 1579 1580 1582 1583 1584 1585 1586 1587 1588 1589 1590 1591 1591 1592 1593 1593 1594 1594 1595 1595 1596 1596 1596 1597 1597 1597 1597 1597 1597 1597 1596 1596 1596 1596 1596 1595 1595 1594 1593 1592 1591 1590 1589 1587 1586 1585 1584 1583 1582 1581
1506 1509 1511 1512 1514 1517 1520 1522 1525 1527 1530 1532 1534 1536 1538 1540 1542 1544 1546 1547 1549 1552 1554 1556 1557 1559 1561 1563 1565 1567 1568 1569 1571 1573 1575 1576 1578 1579 1580 1582 1583 1584 1585 1586 1587 1588 1588 1589 1590 1590 1591 1592 1592 1593 1593 1594 1594 1594 1595 1595 1596 1595 1595 1595 1595 1595 1595 1594 1594 1594 1594 1593 1593 1592 1591 1591 1589 1588 1586 1585 1584 1582 1581 1580 1580
1503 1505 1507 1509 1512 1515 1517 1519 1522 1524 1526 1528 1530 1533 1535 1537 1539 1540 1542 1544 1546 1548 1550 1552 1553 1555 1557 1559 1561 1563 1564 1566 1568 1569 1571 1573 1574 1576 1577 1578 1580 1581 1582 1583 1584 1585 1586 1587 1587 1588 1589 1589 1590 1591 1591 1592 1592 1592 1593 1593 1593 1593 1593 1593 1593 1593 1593 1593 1593 1593 1592 1591 1591 1591 1590 1590 1589 1587 1585 1584 1583 1581 1580 1579 1579
1499 1501 1503 1506 1509 1512 1514 1516 1519 1521 1523 1525 1527 1529 1532 1534 1535 1537 1539 1540 1542 1544 1546 1548 1549 1551 1553 1555 1557 1558 1560 1562 1564 1566 1568 1569 1571 1572 1574 1575 1577 1578 1579 1580 1581 1582 1583 1584 1585 1585 1586 1587 1588 1588 1589 1589 1590 1590 1591 1591 1591 1591 1591 1591 1591 1592 1592 1591 1591 1591 1590 1589 1590 1590 1589 1588 1587 1586 1584 1583 1582 1580 1579 1578 1578
1497 1499 1501 1504 1507 1509 1511 1514 1516 1518 1520 1522 1524 1526 1529 1530 1532 1533 1535 1537 1539 1541 1542 1544 1546 1548 1550 1551 1553 1554 1556 1559 1561 1562 1564 1566 1568 1569 1570 1572 1573 1574 1576 1577 1578 1579 1580 1581 1582 1582 1583 1583 1584 1585 1586 1587 1587 1587 1588 1588 1589 1589 1589 1589 1590 1590 1590 1589 1589 1588 1588 1588 1588 1588 1588 1587 1585 1584 1583 1582 1581 1580 1579 1578 1577
1496 1497 1499 1502 1504 1506 1508 1510 1512 1515 1517 1519 1521 1523 1525 1526 1528 1530 1531 1533 1535 1537 1538 1540 1542 1544 1546 1547 1549 1551 1553 1555 1557 1559 1560 1562 1564 1565 1566 1568 1569 1571 1572 1573 1575 1576 1577 1578 1578 1579 1579 1580 1581 1582 1582 1583 1584 1584 1585 1585 1586 1586 1587 1587 1587 1587 1587 1587 1586 1586 1586 1586 1586 1586 1586 1585 1583 1582 1581 1581 1580 1579 1578 1577 1576
1495 1497 1498 1500 1501 1503 1505 1507 1509 1511 1514 1516 1518 1520 1521 1523 1524 1526 1528 1530 1531 1532 1534 1536 1538 1540 1542 1543 1545 1547 1549 1551 1553 1555 1556 1558 1560 1561 1563 1564 1566 1567 1568 1569 1571 1572 1573 1574 1574 1575 1576 1577 1577 1578 1579 1580 1580 1581 1581 1582 1582 1583 1584 1585 1585 1585 1585 1585 1584 1583 1584 1585 1584 1584 1584 1583 1581 1581 1580 1579 1578 1577 1576 1575 1574
1491 1494 1496 1498 1500 1501 1502 1503 1506 1508 1510 1513 1514 1516 1518 1519 1521 1523 1525 1526 1527 1529 1530 1532 1534 1536 1538 1540 1541 1543 1544 1547 1549 1551 1552 1554 1556 1558 1559 1560 1562 1563 1565 1566 1567 1568 1569 1570 1570 1571 1572 1573 1574 1575 1576 1577 1577 1578 1578 1579 1579 1580 1581 1581 1582 1582 1582 1582 1582 1581 1582 1582 1582 1581 1581 1581 1579 1579 1578 1577 1576 1575 1574 1573 1572
1486 1488 1491 1495 1498 1500 1500 1501 1502 1505 1507 1509 1510 1512 1514 1516 1518 1520 1521 1522 1524 1525 1526 1528 1530 1532 1534 1536 1537 1538 1540 1543 1545 1546 1548 1550 1552 1554 1555 1557 1558 1559 1561 1562 1563 1564 1565 1566 1567 1568 1569 1570 1571 1572 1573 1574 1574 1575 1575 1575 1576 1576 1576 1577 1578 1578 1578 1578 1578 1579 1579 1579 1579 1578 1578 1578 1577 1577 1576 1574 1573 1573 1572 1571 1570
1485 1486 1486 1488 1492 1497 1500 1500 1500 1502 1504 1505 1507 1508 1510 1512 1515 1516 1518 1519 1520 1521 1522 1524 1525 1527 1529 1531 1532 1534 1536 1538 1540 1542 1544 1546 1548 1550 1551 1553 1554 1555 1557 1558 1559 1560 1561 1562 1563 1564 1565 1566 1567 1568 1570 1571 1571 1571 1571 1571 1572 1572 1572 1573 1573 1574 1574 1574 1574 1575 1575 1575 1575 1575 1575 1574 1574 1574 1572 1571 1571 1571 1570 1569 1568
1482 1484 1484 1484 1486 1490 1496 1500 1500 1500 1501 1502 1503 1505 1507 1509 1511 1512 1514 1515 1515 1517 1518 1520 1521 1523 1524 1526 1528 1529 1531 1533 1536 1538 1540 1542 1544 1545 1547 1549 1550 1551 1553 1554 1555 1556 1557 1558 1559 1560 1560 1561 1563 1565 1566 1567 1567 1567 1567 1568 1568 1567 1567 1568 1569 1569 1570 1570 1570 1570 1571 1571 1571 1571 1571 1571 1571 1570 1569 1568 1569 1568 1567 1566 1566
1479 1481 1483 1484 1484 1485 1490 1496 1499 1499 1498 1499 1501 1502 1504 1506 1507 1509 1510 1511 1512 1514 1515 1516 1517 1518 1519 1521 1523 1524 1526 1529 1532 1534 1536 1538 1540 1541 1543 1545 1546 1547 1549 1550 1551 1551 1552 1554 1555 1556 1556 1558 1559 1561 1562 1563 1563 1564 1564 1565 1564 1563 1563 1564 1565 1565 1565 1566 1566 1566 1566 1567 1567 1567 1567 1567 1567 1567 1566 1566 1565 1565 1564 1564 1564
1476 1477 1479 1481 1481 1481 1483 1488 1493 1495 1496 1497 1498 1499 1501 1502 1504 1505 1506 1508 1509 1510 1511 1512 1512 1514 1515 1517 1518 1519 1521 1524 1527 1529 1531 1533 1535 1537 1539 1540 1542 1543 1544 1546 1547 1547 1548 1549 1550 1552 1553 1554 1556 1557 1558 1559 1560 1560 1561 1561 1560 1560 1560 1562 1562 1562 1562 1562 1562 1562 1562 1563 1563 1563 1563 1563 1563 1563 1563 1562 1562 1562 1561 1561 1561
1473 1473 1474 1476 1477 1477 1478 1481 1486 1489 1492 1493 1495 1496 1497 1498 1500 1501 1503 1504 1505 1506 1507 1508 1509 1509 1511 1512 1513 1515 1517 1519 1522 1524 1526 1529 1531 1533 1534 1536 1538 1540 1541 1542 1543 1543 1544 1545 1547 1548 1550 1551 1552 1554 1555 1556 1556 1557 1557 1556 1556 1557 1558 1558 1558 1559 1559 1559 1558 1558 1558 1558 1559 1559 1559 1559 1559 1559 1559 1559 1559 1559 1558 1558 1558
1470 1470 1471 1472 1473 1473 1474 1477 1481 1485 1487 1489 1490 1492 1493 1495 1496 1497 1499 1500 1501 1502 1504 1504 1505 1505 1506 1508 1509 1510 1512 1514 1517 1519 1521 1524 1526 1528 1530 1531 1534 1536 1537 1537 1538 1539 1540 1542 1543 1545 1546 1547 1549 1550 1551 1552 1552 1552 1552 1553 1553 1554 1555 1555 1555 1555 1555 1555 1555 1554 1554 1554 1555 1555 1555 1555 1555 1556 1556 1556 1556 1556 1556 1556 1555
1467 1467 1467 1468 1470 1472 1474 1476 1478 1480 1482 1484 1486 1487 1488 1490 1492 1493 1495 1496 1497 1498 1499 1500 1501 1501 1502 1503 1504 1506 1508 1510 1512 1514 1516 1519 1521 1524 1525 1527 1530 1532 1532 1532 1533 1535 1537 1538 1540 1542 1543 1544 1545 1546 1547 1548 1548 1548 1548 1549 1550 1550 1551 1551 1551 1551 1551 1551 1550 1550 1550 1550 1551 1551 1551 1552 1552 1552 1552 1552 1553 1553 1553 1553 1553
1465 1465 1465 1466 1468 1470 1472 1474 1475 1476 1478 1480 1481 1482 1484 1486 1487 1489 1490 1492 1493 1493 1494 1496 1497 1497 1498 1499 1500 1501 1503 1505 1507 1510 1512 1514 1517 1519 1521 1523 1526 1527 1528 1528 1530 1531 1533 1534 1536 1538 1540 1541 1542 1543 1543 1543 1543 1544 1545 1545 1546 1547 1547 1547 1547 1547 1547 1546 1546 1545 1545 1546 1547 1547 1548 1548 1549 1549 1549 1549 1550 1550 1550 1550 1550
1462 1462 1463 1464 1466 1468 1469 1470 1471 1472 1474 1476 1477 1478 1479 1481 1482 1484 1486 1487 1488 1489 1489 1491 1492 1493 1494 1495 1496 1497 1500 1501 1503 1505 1507 1510 1512 1514 1516 1519 1521 1523 1524 1524 1526 1527 1529 1531 1533 1534 1535 1536 1537 1538 1538 1538 1539 1540 1541 1542 1542 1542 1542 1542 1542 1542 1541 1541 1541 1541 1541 1542 1543 1544 1544 1545 1546 1546 1547 1547 1548 1548 1548 1548 1548
1458 1459 1461 1462 1464 1465 1465 1466 1467 1468 1469 1471 1472 1473 1475 1476 1478 1479 1480 1482 1483 1484 1485 1486 1487 1488 1489 1490 1492 1494 1496 1497 1499 1500 1502 1504 1506 1509 1512 1514 1517 1519 1520 1521 1522 1524 1526 1527 1529 1530 1531 1532 1533 1533 1533 1534 1535 1536 1537 1537 1537 1537 1538 1538 1537 1537 1536 1536 1536 1537 1538 1539 1540 1540 1541 1542 1543 1544 1545 1545 1545 1545 1546 1546 1546
1455 1456 1457 1459 1460 1461 1461 1462 1462 1463 1464 1466 1467 1469 1471 1472 1474 1474 1475 1476 1477 1479 1480 1482 1482 1483 1484 1486 1489 1491 1492 1493 1494 1495 1496 1498 1501 1504 1507 1509 1512 1514 1515 1516 1518 1520 1522 1523 1524 1525 1526 1527 1527 1527 1528 1529 1530 1531 1531 1532 1532 1533 1533 1533 1533 1532 1532 1532 1533 1533 1534 1535 1536 1537 1538 1539 1540 1541 1542 1542 1543 1543 1543 1544 1545
1453 1454 1454 1455 1456 1457 1457 1458 1458 1458 1459 1460 1462 1464 1465 1467 1469 1469 1470 1471 1472 1474 1475 1476 1477 1478 1480 1482 1484 1486 1487 1487 1487 1488 1491 1493 1496 1499 1501 1504 1507 1509 1510 1512 1514 1517 1518 1519 1520 1521 1521 1522 1522 1522 1522 1523 1524 1525 1526 1527 1528 1528 1528 1528 1528 1528 1528 1529 1529 1530 1531 1531 1532 1534 1535 1536 1537 1538 1538 1539 1539 1540 1541 1542 1542
1452 1451 1451 1451 1452 1452 1452 1453 1453 1454 1455 1456 1457 1459 1460 1462 1464 1464 1465 1466 1467 1468 1470 1471 1472 1474 1475 1477 1479 1480 1480 1480 1481 1484 1487 1489 1491 1494 1496 1499 1502 1505 1507 1509 1512 1513 1514 1514 1515 1516 1516 1517 1517 1517 1517 1518 1519 1520 1521 1522 1523 1523 1523 1524 1523 1524 1525 1525 1525 1526 1527 1528 1529 1532 1534 1535 1536 1536 1535 1535 1535 1536 1537 1538 1538
1449 1449 1448 1448 1448 1448 1448 1449 1450 1450 1451 1452 1454 1455 1456 1458 1460 1460 1461 1462 1463 1464 1465 1466 1468 1470 1471 1472 1473 1474 1475 1476 1479 1482 1484 1485 1487 1489 1492 1495 1498 1501 1504 1506 1508 1509 1509 1509 1510 1511 1512 1512 1512 1512 1512 1514 1514 1514 1515 1517 1517 1518 1518 1518 1519 1520 1521 1521 1521 1522 1522 1523 1526 1529 1531 1531 1532 1532 1532 1531 1532 1532 1532 1533 1535
1447 1446 1445 1445 1445 1445 1445 1446 1447 1447 1448 1449 1450 1452 1453 1454 1455 1456 1457 1458 1459 1460 1461 1463 1465 1467 1467 1468 1470 1471 1472 1475 1477 1479 1480 1482 1484 1486 1488 1491 1494 1497 1499 1502 1503 1503 1503 1504 1505 1506 1507 1507 1507 1508 1509 1509 1509 1510 1511 1511 1512 1512 1512 1513 1514 1516 1516 1516 1517 1518 1518 1519 1522 1525 1524 1524 1525 1527 1527 1528 1528 1528 1529 1530 1532
1444 1443 1442 1442 1442 1442 1443 1443 1444 1445 1445 1446 1447 1448 1449 1450 1451 1452 1453 1454 1455 1457 1458 1460 1462 1463 1464 1465 1466 1468 1469 1472 1474 1476 1477 1480 1481 1483 1485 1487 1489 1492 1494 1496 1496 1497 1498 1499 1500 1502 1503 1503 1503 1504 1505 1505 1505 1506 1506 1506 1506 1506 1507 1509 1510 1512 1512 1511 1512 1514 1515 1516 1518 1519 1519 1519 1521 1522 1523 1524 1524 1525 1526 1527 1529
1442 1440 1439 1438 1438 1439 1439 1440 1440 1441 1442 1443 1444 1445 1445 1446 1446 1447 1448 1450 1452 1453 1455 1456 1458 1459 1461 1462 1463 1464 1466 1469 1471 1473 1474 1476 1477 1479 1481 1482 1484 1487 1488 1489 1489 1491 1492 1494 1495 1497 1498 1499 1500 1501 1502 1502 1502 1502 1502 1502 1502 1503 1504 1506 1507 1507 1507 1508 1508 1510 1511 1512 1513 1514 1515 1516 1517 1518 1520 1521 1522 1523 1524 1524 1526
1439 1437 1436 1434 1434 1435 1435 1436 1437 1438 1439 1440 1440 1441 1442 1443 1444 1445 1446 1447 1448 1448 1450 1452 1454 1456 1457 1458 1460 1461 1463 1465 1467 1469 1471 1472 1474 1476 1477 1478 1479 1481 1481 1482 1483 1485 1486 1488 1490 1492 1494 1495 1495 1497 1498 1498 1497 1497 1497 1498 1499 1500 1502 1502 1503 1503 1504 1504 1505 1506 1507 1509 1509 1510 1512 1513 1514 1516 1517 1518 1519 1520 1520 1521 1523
1436 1434 1433 1431 1431 1431 1431 1432 1433 1434 1435 1436 1437 1438 1439 1439 1440 1441 1442 1443 1443 1444 1445 1447 1449 1452 1453 1454 1456 1457 1460 1462 1464 1465 1467 1469 1471 1473 1473 1474 1474 1474 1475 1476 1477 1479 1481 1482 1484 1486 1488 1489 1490 1492 1493 1493 1493 1492 1493 1494 1496 1497 1498 1499 1499 1500 1500 1501 1502 1503 1504 1505 1505 1506 1508 1509 1511 1512 1513 1514 1515 1516 1517 1519 1521
1434 1431 1430 1428 1428 1427 1428 1429 1430 1430 1432 1433 1434 1435 1435 1435 1435 1435 1436 1437 1438 1439 1441 1443 1445 1447 1449 1450 1451 1453 1456 1458 1460 1461 1463 1465 1466 1467 1468 1467 1468 1468 1469 1470 1471 1473 1475 1477 1478 1481 1483 1484 1486 1488 1489 1488 1487 1487 1487 1488 1490 1492 1493 1494 1495 1496 1497 1498 1498 1499 1500 1501 1501 1502 1503 1504 1505 1506 1508 1510 1511 1513 1515 1517 1518
1432 1429 1427 1425 1424 1424 1424 1425 1426 1427 1428 1429 1430 1431 1431 1431 1431 1432 1432 1433 1434 1435 1437 1439 1440 1441 1443 1445 1447 1449 1451 1453 1455 1457 1458 1459 1460 1461 1461 1462 1462 1463 1463 1464 1466 1468 1470 1472 1474 1475 1476 1478 1482 1483 1483 1481 1481 1480 1480 1481 1483 1484 1485 1488 1491 1492 1494 1494 1495 1495 1496 1497 1498 1499 1499 1500 1500 1501 1503 1506 1509 1511 1513 1515 1517
1430 1427 1426 1424 1422 1421 1421 1421 1422 1423 1424 1424 1425 1426 1426 1427 1427 1427 1428 1428 1429 1431 1432 1433 1434 1435 1436 1439 1442 1444 1446 1448 1450 1451 1452 1453 1454 1454 1455 1456 1457 1458 1458 1459 1462 1463 1464 1466 1467 1467 1468 1473 1476 1475 1473 1473 1474 1474 1476 1477 1478 1478 1479 1482 1486 1488 1490 1491 1491 1492 1493 1495 1496 1498 1499 1499 1499 1499 1500 1503 1506 1508 1511 1513 1515
1428 1426 1424 1423 1421 1420 1419 1419 1419 1420 1420 1420 1420 1421 1421 1422 1422 1422 1423 1424 1424 1425 1427 1428 1428 1429 1431 1434 1436 1438 1440 1441 1443 1444 1446 1447 1448 1448 1450 1451 1452 1453 1454 1455 1456 1457 1458 1460 1462 1462 1464 1469 1471 1469 1468 1469 1471 1472 1474 1475 1475 1476 1477 1479 1482 1485 1487 1488 1489 1490 1491 1492 1494 1495 1496 1497 1498 1498 1498 1500 1503 1506 1508 1511 1513
1426 1424 1423 1421 1420 1419 1418 1417 1417 1418 1418 1417 1417 1416 1416 1416 1417 1417 1418 1419 1420 1421 1422 1423 1423 1425 1427 1428 1430 1431 1433 1434 1436 1438 1440 1442 1443 1444 1445 1446 1448 1449 1450 1450 1451 1452 1454 1457 1460 1461 1462 1466 1468 1467 1467 1468 1469 1471 1473 1474 1473 1474 1475 1477 1479 1482 1484 1485 1486 1487 1488 1489 1490 1491 1492 1494 1495 1496 1496 1499 1502 1505 1507 1509 1512
1425 1422 1420 1419 1418 1417 1416 1416 1416 1416 1415 1415 1414 1413 1412 1412 1412 1413 1414 1414 1415 1416 1417 1417 1418 1419 1421 1422 1423 1425 1426 1428 1430 1433 1435 1437 1439 1440 1441 1442 1444 1446 1447 1448 1449 1450 1452 1455 1457 1458 1460 1463 1465 1465 1466 1467 1468 1469 1471 1472 1471 1471 1473 1475 1476 1478 1480 1482 1483 1484 1485 1485 1486 1488 1489 1491 1492 1493 1494 1497 1501 1503 1505 1508 1510
1423 1420 1418 1417 1417 1416 1415 1415 1414 1414 1413 1412 1411 1410 1409 1408 1408 1408 1408 1408 1409 1410 1411 1412 1413 1414 1414 1414 1416 1418 1420 1423 1426 1429 1431 1433 1434 1436 1437 1438 1440 1441 1443 1445 1445 1446 1448 1450 1452 1454 1457 1461 1462 1463 1464 1466 1466 1467 1469 1469 1468 1469 1471 1473 1474 1475 1476 1478 1479 1481 1482 1483 1484 1485 1487 1488 1489 1492 1494 1496 1499 1501 1503 1505 1507
1421 1418 1416 1415 1415 1414 1414 1413 1412 1411 1410 1409 1408 1406 1405 1404 1404 1404 1404 1404 1404 1405 1406 1407 1408 1408 1409 1410 1412 1415 1418 1420 1423 1425 1426 1428 1429 1430 1431 1432 1434 1435 1438 1440 1441 1442 1444 1446 1448 1451 1455 1458 1458 1458 1461 1462 1463 1464 1465 1466 1466 1466 1468 1470 1471 1472 1473 1475 1476 1478 1480 1481 1482 1484 1485 1487 1489 1491 1493 1496 1498 1499 1501 1503 1504
1420 1417 1415 1414 1413 1412 1412 1411 1410 1409 1407 1406 1403 1401 1400 1400 1400 1401 1401 1401 1401 1401 1402 1402 1403 1404 1406 1408 1411 1414 1416 1417 1418 1420 1421 1423 1424 1425 1426 1427 1429 1431 1434 1436 1438 1439 1441 1441 1442 1447 1453 1455 1454 1456 1459 1461 1461 1461 1462 1462 1462 1463 1464 1466 1469 1470 1471 1473 1474 1477 1479 1480 1482 1483 1485 1487 1489 1491 1493 1495 1496 1498 1499 1501 1502
1417 1415 1413 1412 1412 1411 1410 1409 1408 1407 1405 1403 1400 1397 1396 1396 1397 1397 1397 1397 1397 1398 1399 1399 1400 1402 1403 1406 1408 1410 1411 1411 1413 1415 1417 1418 1420 1420 1421 1423 1425 1428 1431 1434 1436 1436 1436 1435 1437 1443 1449 1451 1451 1453 1456 1457 1457 1458 1458 1459 1460 1461 1462 1464 1467 1468 1470 1472 1473 1475 1477 1479 1481 1483 1485 1486 1489 1491 1492 1494 1495 1496 1498 1499 1500
1414 1412 1410 1410 1410 1409 1409 1409 1408 1406 1404 1401 1397 1394 1393 1393 1394 1395 1394 1394 1395 1396 1396 1397 1398 1399 1400 1402 1404 1405 1406 1407 1408 1409 1411 1412 1415 1417 1419 1420 1422 1425 1429 1432 1433 1433 1432 1433 1436 1442 1447 1449 1449 1450 1450 1451 1453 1455 1455 1456 1458 1460 1461 1463 1465 1466 1469 1471 1473 1475 1477 1479 1481 1483 1484 1486 1487 1489 1491 1492 1494 1495 1496 1497 1498
1413 1411 1410 1409 1409 1409 1409 1409 1408 1406 1403 1399 1395 1392 1391 1391 1392 1392 1393 1393 1394 1395 1396 1397 1397 1397 1398 1400 1402 1402 1402 1402 1402 1404 1407 1409 1411 1414 1416 1417 1419 1422 1424 1426 1428 1429 1429 1430 1433 1439 1445 1448 1450 1450 1449 1450 1452 1453 1454 1455 1457 1459 1460 1462 1464 1466 1468 1471 1473 1475 1477 1479 1480 1482 1483 1484 1486 1488 1489 1491 1492 1493 1494 1495 1496
1413 1411 1410 1410 1410 1410 1410 1409 1408 1406 1402 1399 1396 1393 1392 1392 1392 1392 1393 1393 1394 1395 1395 1396 1396 1396 1397 1398 1398 1397 1397 1398 1399 1402 1405 1408 1409 1411 1414 1417 1419 1420 1420 1422 1424 1426 1427 1428 1432 1436 1440 1445 1449 1451 1451 1451 1453 1454 1455 1456 1457 1459 1460 1462 1464 1466 1469 1471 1473 1475 1477 1479 1480 1481 1482 1483 1485 1486 1487 1489 1490 1491 1492 1493 1493
1413 1412 1411 1411 1411 1411 1411 1410 1409 1406 1403 1400 1398 1396 1394 1394 1394 1395 1396 1396 1397 1397 1397 1397 1396 1396 1397 1397 1396 1396 1397 1399 1401 1403 1405 1406 1408 1411 1414 1418 1421 1421 1421 1421 1423 1424 1426 1430 1433 1434 1436 1440 1446 1450 1452 1454 1455 1457 1458 1458 1459 1460 1462 1463 1465 1467 1469 1471 1474 1476 1477 1479 1480 1480 1481 1482 1483 1484 1485 1487 1488 1488 1489 1490 1490
1414 1413 1412 1412 1412 1412 1412 1411 1409 1407 1405 1403 1401 1399 1398 1398 1398 1398 1399 1399 1399 1400 1400 1400 1399 1399 1399 1399 1399 1399 1400 1401 1401 1403 1405 1408 1410 1412 1415 1420 1423 1423 1422 1423 1424 1425 1428 1430 1430 1431 1434 1440 1446 1450 1453 1455 1457 1458 1460 1460 1461 1462 1464 1465 1467 1469 1471 1473 1475 1476 1478 1479 1479 1480 1480 1481 1481 1482 1482 1483 1484 1485 1485 1486 1486
1415 1414 1414 1414 1414 1413 1412 1411 1410 1408 1407 1406 1405 1404 1403 1403 1402 1402 1403 1403 1403 1403 1404 1403 1403 1403 1403 1403 1402 1402 1405 1405 1403 1402 1405 1409 1411 1414 1419 1423 1426 1426 1425 1425 1425 1426 1427 1427 1428 1432 1438 1444 1448 1451 1453 1455 1457 1458 1460 1461 1462 1463 1465 1466 1468 1469 1471 1473 1475 1476 1477 1478 1478 1478 1478 1478 1479 1479 1479 1480 1481 1481 1482 1483 1483